Weather History for Nashua, NH

Change the Weather History Date:

Friday, November 30, 2012

  Actual Average Record
Temperature  
Mean Temperature 30 °F -  
Max Temperature 34 °F 42 °F 65 °F (2006)
Min Temperature 26 °F 24 °F 6 °F (1967)
Degree Days  
Heating Degree Days 35    
Moisture  
Dew Point 7 °F    
Average Humidity 43    
Maximum Humidity 80    
Minimum Humidity 20    
Precipitation  
Precipitation 0.00 in - - ()
Sea Level Pressure  
Sea Level Pressure 30.46 in    
Wind  
Wind Speed 7 mph (North)    
Max Wind Speed 13 mph    
Max Gust Speed -    
Visibility 10 miles    
Events      
Averages and records for this station are not official NWS values.
T = Trace of Precipitation, MM = Missing Value Source: NWS Daily Summary

Daily Weather History Graph

Daily Weather History Graph

Search for Another Location

Airport:

Trip Planner

Search our weather history database for the weather conditions in past years. The results will help you decide how hot, cold, wet, or windy it might be!

Date:

Astronomy

Nov. 30, 2012 Rise Set
Actual Time 6:56 AM EST 4:13 PM EST
Civil Twilight 6:24 AM EST 4:44 PM EST
Nautical Twilight 5:49 AM EST 5:20 PM EST
Astronomical Twilight 5:15 AM EST 5:54 PM EST
Moon 6:05 PM EST (11/30) 8:25 AM EST (11/30)
Length of Visible Light 10h 20m
Length of Day
9h 17m
Waning Gibbous, 96% of the Moon is Illuminated
Nov 30
Waning Gibbous
Dec 6
Last Quarter
Dec 13
New
Dec 20
First Quarter
Dec 28
Full

Hourly Weather History & Observations

Time (EST) Temp. Windchill Dew Point Humidity Pressure Visibility Wind Dir Wind Speed Gust Speed Precip Events Conditions
12:51 AM 34.9 °F 29.0 °F 26.1 °F 70% 30.25 in 10.0 mi North 6.9 mph - N/A   Overcast
1:51 AM 32.9 °F 25.3 °F 25.2 °F 73% 30.29 in 10.0 mi North 9.2 mph - N/A   Overcast
2:29 AM 32.0 °F 24.8 °F 26.6 °F 80% 30.30 in 10.0 mi North 8.1 mph - N/A   Overcast
2:51 AM 32.0 °F 24.8 °F 24.1 °F 73% 30.32 in 10.0 mi North 8.1 mph - N/A   Overcast
3:29 AM 30.2 °F 24.3 °F 23.0 °F 75% 30.31 in 10.0 mi North 5.8 mph - N/A   Overcast
3:51 AM 31.1 °F 26.4 °F 22.1 °F 69% 30.34 in 10.0 mi North 4.6 mph - N/A   Mostly Cloudy
4:51 AM 31.1 °F 23.7 °F 18.1 °F 59% 30.36 in 10.0 mi North 8.1 mph - N/A   Overcast
5:51 AM 29.1 °F 23.0 °F 12.0 °F 49% 30.41 in 10.0 mi Variable 5.8 mph - N/A   Overcast
6:23 AM 28.4 °F 19.1 °F 10.4 °F 47% 30.41 in 10.0 mi North 10.4 mph - N/A   Mostly Cloudy
6:51 AM 28.0 °F 19.3 °F 10.0 °F 47% 30.45 in 10.0 mi North 9.2 mph - N/A   Mostly Cloudy
7:51 AM 26.1 °F 15.0 °F 8.1 °F 47% 30.48 in 10.0 mi North 12.7 mph - N/A   Clear
8:51 AM 26.1 °F 15.6 °F 2.1 °F 36% 30.50 in 10.0 mi North 11.5 mph - N/A   Clear
9:51 AM 27.1 °F 16.9 °F 2.1 °F 34% 30.51 in 10.0 mi North 11.5 mph - N/A   Clear
10:51 AM 28.0 °F 20.0 °F 3.0 °F 34% 30.51 in 10.0 mi NNW 8.1 mph - N/A   Clear
11:51 AM 29.1 °F 22.1 °F 1.0 °F 30% 30.50 in 10.0 mi NNW 6.9 mph - N/A   Clear
12:51 PM 31.1 °F 23.1 °F -1.8 °F 24% 30.49 in 10.0 mi North 9.2 mph - N/A   Clear
1:51 PM 31.1 °F 25.4 °F -6.0 °F 20% 30.48 in 10.0 mi North 5.8 mph - N/A   Clear
2:51 PM 31.1 °F 24.5 °F -4.9 °F 21% 30.50 in 10.0 mi North 6.9 mph - N/A   Partly Cloudy
3:51 PM 30.0 °F 24.1 °F -4.0 °F 23% 30.51 in 10.0 mi NNW 5.8 mph - N/A   Mostly Cloudy
4:51 PM 30.0 °F 26.5 °F -4.0 °F 23% 30.52 in 10.0 mi North 3.5 mph - N/A   Mostly Cloudy
5:51 PM 29.1 °F 24.1 °F -0.9 °F 27% 30.54 in 10.0 mi ENE 4.6 mph - N/A   Mostly Cloudy
6:51 PM 29.1 °F 25.4 °F -0.9 °F 27% 30.56 in 10.0 mi NE 3.5 mph - N/A   Overcast
7:51 PM 29.1 °F 25.4 °F 1.0 °F 30% 30.57 in 10.0 mi Variable 3.5 mph - N/A   Overcast
8:51 PM 29.1 °F 25.4 °F 1.0 °F 30% 30.58 in 10.0 mi Variable 3.5 mph - N/A   Overcast
9:51 PM 29.1 °F 25.4 °F 2.1 °F 32% 30.58 in 10.0 mi NNE 3.5 mph - N/A   Overcast
10:51 PM 28.0 °F 22.8 °F 3.0 °F 34% 30.58 in 10.0 mi North 4.6 mph - N/A   Overcast
11:51 PM 28.0 °F 21.7 °F 3.0 °F 34% 30.59 in 10.0 mi NNE 5.8 mph - N/A   Mostly Cloudy